17-10-2023, 00:00:03,     66,    0.9,    7.1,   0.00,   0.00, 1014.5,    0.7, -999.0
17-10-2023, 00:00:13,     66,    0.3,    7.1,   0.00,   0.00, 1014.4,    0.7, -999.0
17-10-2023, 00:00:23,     48,    0.9,    7.1,   0.00,   0.00, 1014.4,    0.7, -999.0
17-10-2023, 00:00:33,     48,    0.7,    7.2,   0.00,   0.00, 1014.4,    0.5, -999.0
17-10-2023, 00:00:43,     48,    0.9,    7.2,   0.00,   0.00, 1014.5,    0.9, -999.0
17-10-2023, 00:00:53,     71,    0.3,    7.1,   0.00,   0.00, 1014.4,    0.4, -999.0
17-10-2023, 00:01:03,     71,    0.2,    7.3,   0.00,   0.00, 1014.4,    0.8, -999.0
17-10-2023, 00:01:12,     71,    0.0,    7.3,   0.00,   0.00, 1014.3,    0.7, -999.0
17-10-2023, 00:01:23,     71,    0.2,    7.2,   0.00,   0.00, 1014.4,    0.9, -999.0
17-10-2023, 00:01:33,     71,    0.0,    7.1,   0.00,   0.00, 1014.3,    0.7, -999.0
17-10-2023, 00:01:42,     71,    0.0,    7.1,   0.00,   0.00, 1014.3,    0.7, -999.0
17-10-2023, 00:01:52,     71,    0.2,    7.1,   0.00,   0.00, 1014.4,    0.7, -999.0
17-10-2023, 00:02:03,     71,    0.1,    7.2,   0.00,   0.00, 1014.4,    0.8, -999.0
17-10-2023, 00:02:13,     70,    0.0,    7.1,   0.00,   0.00, 1014.3,    0.6, -999.0
17-10-2023, 00:02:22,     70,    0.0,    7.1,   0.00,   0.00, 1014.3,    0.6, -999.0
17-10-2023, 00:02:33,     68,    0.1,    7.2,   0.00,   0.00, 1014.3,    0.4, -999.0
17-10-2023, 00:02:43,     71,    0.8,    7.2,   0.00,   0.00, 1014.5,    0.9, -999.0
17-10-2023, 00:02:52,     71,    0.5,    7.2,   0.00,   0.00, 1014.4,    0.6, -999.0
17-10-2023, 00:03:02,     70,    0.0,    7.2,   0.00,   0.00, 1014.3,    0.7, -999.0
17-10-2023, 00:03:13,     70,    0.0,    7.1,   0.00,   0.00, 1014.3,    0.5, -999.0
17-10-2023, 00:03:22,     71,    0.0,    7.2,   0.00,   0.00, 1014.3,    0.7, -999.0
17-10-2023, 00:03:32,     70,    0.0,    7.1,   0.00,   0.00, 1014.4,    0.5, -999.0
17-10-2023, 00:03:42,     71,    0.0,    7.0,   0.00,   0.00, 1014.3,    0.6, -999.0
17-10-2023, 00:03:53,     71,    0.0,    7.1,   0.00,   0.00, 1014.3,    0.5, -999.0
17-10-2023, 00:04:02,     68,    1.1,    7.1,   0.00,   0.00, 1014.4,    0.7, -999.0
17-10-2023, 00:04:12,     68,    0.3,    7.2,   0.00,   0.00, 1014.4,    0.8, -999.0
17-10-2023, 00:04:22,     68,    0.0,    7.1,   0.00,   0.00, 1014.3,    0.5, -999.0
17-10-2023, 00:04:32,     68,    0.0,    7.1,   0.00,   0.00, 1014.3,    0.6, -999.0
17-10-2023, 00:04:42,     48,    0.9,    7.2,   0.00,   0.00, 1014.5,    0.6, -999.0
17-10-2023, 00:04:52,     40,    2.1,    7.1,   0.00,   0.00, 1014.5,    0.8, -999.0
17-10-2023, 00:05:02,     40,    0.7,    7.1,   0.00,   0.00, 1014.4,    0.5, -999.0
17-10-2023, 00:05:12,     40,    0.0,    7.0,   0.00,   0.00, 1014.3,    0.7, -999.0
17-10-2023, 00:05:22,     40,    0.0,    7.1,   0.00,   0.00, 1014.3,    0.8, -999.0
17-10-2023, 00:05:32,     40,    0.0,    7.1,   0.00,   0.00, 1014.3,    0.5, -999.0
17-10-2023, 00:05:42,     40,    0.0,    7.0,   0.00,   0.00, 1014.3,    0.6, -999.0
17-10-2023, 00:05:52,     40,    0.0,    7.0,   0.00,   0.00, 1014.3,    0.7, -999.0
17-10-2023, 00:06:02,     40,    0.0,    7.1,   0.00,   0.00, 1014.3,    0.7, -999.0
17-10-2023, 00:06:12,     40,    0.0,    7.1,   0.00,   0.00, 1014.3,    0.6, -999.0
17-10-2023, 00:06:22,     40,    1.0,    7.2,   0.00,   0.00, 1014.4,    0.7, -999.0
17-10-2023, 00:06:32,     40,    0.4,    7.2,   0.00,   0.00, 1014.4,    0.9, -999.0
17-10-2023, 00:06:42,     40,    0.0,    7.1,   0.00,   0.00, 1014.3,    0.9, -999.0
17-10-2023, 00:06:52,     41,    0.0,    7.1,   0.00,   0.00, 1014.3,    0.6, -999.0
17-10-2023, 00:07:02,     41,    0.0,    7.2,   0.00,   0.00, 1014.3,    0.6, -999.0
17-10-2023, 00:07:12,     40,    0.0,    7.2,   0.00,   0.00, 1014.4,    0.7, -999.0
17-10-2023, 00:07:22,     40,    0.3,    7.2,   0.00,   0.00, 1014.4,    0.4, -999.0
17-10-2023, 00:07:32,     40,    0.6,    7.3,   0.00,   0.00, 1014.4,    0.6, -999.0
17-10-2023, 00:07:42,     40,    0.1,    7.3,   0.00,   0.00, 1014.4,    0.6, -999.0
17-10-2023, 00:07:52,     40,    0.1,    7.2,   0.00,   0.00, 1014.4,    0.5, -999.0
17-10-2023, 00:08:02,     40,    0.4,    7.2,   0.00,   0.00, 1014.4,    0.7, -999.0
17-10-2023, 00:08:12,     40,    0.8,    7.2,   0.00,   0.00, 1014.5,    0.7, -999.0
17-10-2023, 00:08:21,     40,    0.4,    7.2,   0.00,   0.00, 1014.4,    0.7, -999.0
17-10-2023, 00:08:32,     40,    0.6,    7.1,   0.00,   0.00, 1014.5,    0.8, -999.0
17-10-2023, 00:08:42,     40,    0.4,    7.2,   0.00,   0.00, 1014.5,    0.5, -999.0
17-10-2023, 00:08:51,     40,    0.1,    7.0,   0.00,   0.00, 1014.4,    0.7, -999.0
17-10-2023, 00:09:01,     40,    0.0,    7.0,   0.00,   0.00, 1014.3,    0.6, -999.0
17-10-2023, 00:09:12,     93,    0.8,    7.0,   0.00,   0.00, 1014.4,    0.7, -999.0
17-10-2023, 00:09:22,     55,    1.3,    7.2,   0.00,   0.00, 1014.5,    0.5, -999.0
17-10-2023, 00:09:31,     53,    1.3,    7.2,   0.00,   0.00, 1014.5,    1.0, -999.0
17-10-2023, 00:09:42,     53,    1.1,    7.3,   0.00,   0.00, 1014.5,    0.5, -999.0
17-10-2023, 00:09:52,     46,    1.2,    7.2,   0.00,   0.00, 1014.5,    0.9, -999.0
17-10-2023, 00:10:01,     45,    1.1,    7.2,   0.00,   0.00, 1014.5,    1.1, -999.0
17-10-2023, 00:10:11,     45,    0.0,    7.1,   0.00,   0.00, 1014.3,    0.7, -999.0
17-10-2023, 00:10:22,     45,    0.2,    7.2,   0.00,   0.00, 1014.4,    0.5, -999.0
17-10-2023, 00:10:31,     45,    0.0,    7.1,   0.00,   0.00, 1014.3,    0.5, -999.0
17-10-2023, 00:10:41,     45,    0.0,    7.1,   0.00,   0.00, 1014.3,    0.7, -999.0
17-10-2023, 00:10:51,     43,    0.9,    7.0,   0.00,   0.00, 1014.4,    0.8, -999.0
17-10-2023, 00:11:02,     43,    0.7,    7.1,   0.00,   0.00, 1014.5,    0.7, -999.0
17-10-2023, 00:11:11,     43,    0.8,    7.1,   0.00,   0.00, 1014.5,    0.6, -999.0
17-10-2023, 00:11:21,     39,    1.6,    7.1,   0.00,   0.00, 1014.5,    1.0, -999.0
17-10-2023, 00:11:31,     39,    0.1,    7.0,   0.00,   0.00, 1014.4,    0.5, -999.0
17-10-2023, 00:11:41,     39,    0.0,    7.0,   0.00,   0.00, 1014.4,    0.6, -999.0
17-10-2023, 00:11:51,     39,    0.0,    7.1,   0.00,   0.00, 1014.3,    0.8, -999.0
17-10-2023, 00:12:01,     39,    0.0,    7.1,   0.00,   0.00, 1014.3,    0.8, -999.0
17-10-2023, 00:12:11,     39,    0.0,    7.1,   0.00,   0.00, 1014.3,    0.4, -999.0
17-10-2023, 00:12:21,     40,    0.0,    7.0,   0.00,   0.00, 1014.3,    0.7, -999.0
17-10-2023, 00:12:31,     40,    0.3,    7.1,   0.00,   0.00, 1014.4,    0.5, -999.0
17-10-2023, 00:12:41,     40,    0.6,    7.1,   0.00,   0.00, 1014.5,    0.7, -999.0
17-10-2023, 00:12:51,     40,    0.2,    7.2,   0.00,   0.00, 1014.4,    0.4, -999.0
17-10-2023, 00:13:01,     39,    0.1,    7.2,   0.00,   0.00, 1014.4,    0.7, -999.0
17-10-2023, 00:13:11,     39,    0.0,    7.1,   0.00,   0.00, 1014.3,    0.6, -999.0
17-10-2023, 00:13:21,     40,    0.0,    7.1,   0.00,   0.00, 1014.4,    0.7, -999.0
17-10-2023, 00:13:31,     60,    1.0,    7.2,   0.00,   0.00, 1014.5,    0.5, -999.0
17-10-2023, 00:13:41,     60,    0.1,    7.2,   0.00,   0.00, 1014.4,    0.8, -999.0
17-10-2023, 00:13:51,     45,    1.0,    7.2,   0.00,   0.00, 1014.5,    0.4, -999.0
17-10-2023, 00:14:01,     45,    1.1,    7.2,   0.00,   0.00, 1014.5,    0.7, -999.0
17-10-2023, 00:14:11,     45,    0.8,    7.2,   0.00,   0.00, 1014.5,    0.8, -999.0
17-10-2023, 00:14:21,     45,    0.1,    7.2,   0.00,   0.00, 1014.4,    0.7, -999.0
17-10-2023, 00:14:31,     44,    0.0,    7.1,   0.00,   0.00, 1014.3,    0.4, -999.0
17-10-2023, 00:14:41,     45,    0.2,    7.0,   0.00,   0.00, 1014.4,    1.2, -999.0
17-10-2023, 00:14:51,     45,    0.0,    7.2,   0.00,   0.00, 1014.4,    0.1, -999.0
17-10-2023, 00:15:01,     45,    0.0,    7.0,   0.00,   0.00, 1014.3,    0.5, -999.0
17-10-2023, 00:15:11,     44,    0.0,    7.1,   0.00,   0.00, 1014.3,    0.6, -999.0
17-10-2023, 00:15:21,     44,    0.1,    7.1,   0.00,   0.00, 1014.4,    0.4, -999.0
17-10-2023, 00:15:31,     56,    1.6,    7.2,   0.00,   0.00, 1014.5,    0.6, -999.0
17-10-2023, 00:15:41,     63,    0.7,    7.2,   0.00,   0.00, 1014.5,    0.7, -999.0
17-10-2023, 00:15:51,     61,    0.7,    7.3,   0.00,   0.00, 1014.5,    0.8, -999.0
17-10-2023, 00:16:00,     61,    0.4,    7.2,   0.00,   0.00, 1014.4,    0.8, -999.0
17-10-2023, 00:16:11,     61,    0.4,    7.2,   0.00,   0.00, 1014.4,    0.6, -999.0
17-10-2023, 00:16:21,     61,    1.4,    7.3,   0.00,   0.00, 1014.5,    0.4, -999.0
17-10-2023, 00:16:30,     61,    0.9,    7.3,   0.00,   0.00, 1014.5,    0.6, -999.0
17-10-2023, 00:16:40,     61,    0.1,    7.2,   0.00,   0.00, 1014.3,    0.5, -999.0
17-10-2023, 00:16:51,     61,    0.2,    7.2,   0.00,   0.00, 1014.4,    0.8, -999.0
17-10-2023, 00:17:01,     61,    0.0,    7.2,   0.00,   0.00, 1014.3,    0.4, -999.0
17-10-2023, 00:17:10,     61,    0.0,    7.2,   0.00,   0.00, 1014.3,    0.5, -999.0
17-10-2023, 00:17:20,     61,    0.0,    7.2,   0.00,   0.00, 1014.4,    0.4, -999.0
17-10-2023, 00:17:31,     61,    0.0,    7.2,   0.00,   0.00, 1014.3,    0.4, -999.0
17-10-2023, 00:17:40,     61,    0.0,    7.2,   0.00,   0.00, 1014.4,    0.7, -999.0
17-10-2023, 00:17:50,     61,    0.6,    7.2,   0.00,   0.00, 1014.5,    0.6, -999.0
17-10-2023, 00:18:00,     61,    0.4,    7.2,   0.00,   0.00, 1014.5,    0.6, -999.0
17-10-2023, 00:18:10,     61,    0.8,    7.2,   0.00,   0.00, 1014.5,    0.9, -999.0
17-10-2023, 00:18:20,     61,    0.4,    7.1,   0.00,   0.00, 1014.4,    0.8, -999.0
17-10-2023, 00:18:30,     61,    0.0,    7.0,   0.00,   0.00, 1014.4,    0.6, -999.0
17-10-2023, 00:18:40,     61,    0.0,    7.1,   0.00,   0.00, 1014.3,    0.5, -999.0
17-10-2023, 00:18:50,     61,    0.0,    7.2,   0.00,   0.00, 1014.4,    0.6, -999.0
17-10-2023, 00:19:00,     61,    0.1,    7.1,   0.00,   0.00, 1014.4,    0.5, -999.0
17-10-2023, 00:19:10,     61,    0.2,    7.1,   0.00,   0.00, 1014.4,    0.4, -999.0
17-10-2023, 00:19:20,     61,    0.1,    7.2,   0.00,   0.00, 1014.4,    0.6, -999.0
17-10-2023, 00:19:30,     60,    0.2,    7.1,   0.00,   0.00, 1014.4,    0.6, -999.0
17-10-2023, 00:19:40,     60,    0.7,    7.1,   0.00,   0.00, 1014.5,    0.5, -999.0
17-10-2023, 00:19:50,     60,    0.0,    7.1,   0.00,   0.00, 1014.3,    0.5, -999.0
17-10-2023, 00:20:00,     57,    0.0,    7.0,   0.00,   0.00, 1014.3,    0.4, -999.0
17-10-2023, 00:20:10,     60,    0.0,    7.1,   0.00,   0.00, 1014.3,    0.8, -999.0
17-10-2023, 00:20:20,     60,    0.0,    7.1,   0.00,   0.00, 1014.3,    0.6, -999.0
17-10-2023, 00:20:30,     60,    0.0,    7.1,   0.00,   0.00, 1014.3,    0.4, -999.0
17-10-2023, 00:20:40,     60,    0.0,    7.0,   0.00,   0.00, 1014.3,    0.6, -999.0
17-10-2023, 00:20:50,     60,    0.0,    7.1,   0.00,   0.00, 1014.3,    0.5, -999.0
17-10-2023, 00:21:00,     60,    0.0,    7.0,   0.00,   0.00, 1014.3,    0.5, -999.0
17-10-2023, 00:21:10,     60,    0.0,    7.1,   0.00,   0.00, 1014.4,    0.7, -999.0
17-10-2023, 00:21:20,     60,    0.3,    7.1,   0.00,   0.00, 1014.4,    0.6, -999.0
17-10-2023, 00:21:30,     60,    0.2,    7.1,   0.00,   0.00, 1014.4,    0.6, -999.0
17-10-2023, 00:21:40,     60,    0.1,    7.1,   0.00,   0.00, 1014.4,    0.5, -999.0
17-10-2023, 00:21:50,     60,    0.0,    7.0,   0.00,   0.00, 1014.3,    0.7, -999.0
17-10-2023, 00:22:00,     60,    0.0,    7.1,   0.00,   0.00, 1014.3,    0.6, -999.0
17-10-2023, 00:22:10,     60,    0.0,    7.1,   0.00,   0.00, 1014.3,    0.7, -999.0
17-10-2023, 00:22:20,     60,    0.0,    7.1,   0.00,   0.00, 1014.3,    0.7, -999.0
17-10-2023, 00:22:30,     60,    0.0,    7.1,   0.00,   0.00, 1014.3,    0.7, -999.0
17-10-2023, 00:22:39,     60,    0.0,    7.2,   0.00,   0.00, 1014.4,    0.6, -999.0
17-10-2023, 00:22:50,     60,    0.0,    7.1,   0.00,   0.00, 1014.3,    0.5, -999.0
17-10-2023, 00:23:00,     60,    0.0,    7.1,   0.00,   0.00, 1014.3,    0.6, -999.0
17-10-2023, 00:23:09,     60,    0.6,    7.1,   0.00,   0.00, 1014.4,    0.6, -999.0
17-10-2023, 00:23:20,     60,    0.1,    7.2,   0.00,   0.00, 1014.3,    0.6, -999.0
17-10-2023, 00:23:30,     60,    0.0,    7.1,   0.00,   0.00, 1014.3,    0.6, -999.0
17-10-2023, 00:23:40,     60,    0.0,    7.0,   0.00,   0.00, 1014.3,    0.5, -999.0
17-10-2023, 00:23:49,     60,    0.0,    7.1,   0.00,   0.00, 1014.3,    0.6, -999.0
17-10-2023, 00:23:59,     60,    0.0,    7.0,   0.00,   0.00, 1014.3,    0.6, -999.0
17-10-2023, 00:24:10,     60,    0.0,    7.0,   0.00,   0.00, 1014.3,    0.6, -999.0
17-10-2023, 00:24:19,     60,    0.0,    7.1,   0.00,   0.00, 1014.3,    0.5, -999.0
17-10-2023, 00:24:29,     60,    0.0,    7.1,   0.00,   0.00, 1014.3,    0.8, -999.0
17-10-2023, 00:24:40,     60,    0.0,    7.1,   0.00,   0.00, 1014.3,    0.5, -999.0
17-10-2023, 00:24:49,     60,    0.0,    7.1,   0.00,   0.00, 1014.3,    0.7, -999.0
17-10-2023, 00:24:59,     60,    0.0,    7.1,   0.00,   0.00, 1014.3,    0.7, -999.0
17-10-2023, 00:25:09,     60,    0.0,    7.1,   0.00,   0.00, 1014.3,    0.6, -999.0
17-10-2023, 00:25:20,     60,    0.0,    7.1,   0.00,   0.00, 1014.3,    0.6, -999.0
17-10-2023, 00:25:29,     60,    0.0,    7.2,   0.00,   0.00, 1014.2,    0.7, -999.0
17-10-2023, 00:25:39,     60,    0.0,    7.1,   0.00,   0.00, 1014.3,    0.6, -999.0
17-10-2023, 00:25:49,     60,    0.1,    7.1,   0.00,   0.00, 1014.3,    0.7, -999.0
17-10-2023, 00:25:59,     60,    0.1,    7.1,   0.00,   0.00, 1014.3,    0.6, -999.0
17-10-2023, 00:26:09,     60,    0.0,    7.1,   0.00,   0.00, 1014.3,    0.5, -999.0
17-10-2023, 00:26:19,     60,    0.0,    7.1,   0.00,   0.00, 1014.3,    0.7, -999.0
17-10-2023, 00:26:29,     60,    0.3,    7.1,   0.00,   0.00, 1014.4,    0.7, -999.0
17-10-2023, 00:26:39,     60,    0.1,    7.1,   0.00,   0.00, 1014.3,    0.8, -999.0
17-10-2023, 00:26:49,     60,    0.2,    7.1,   0.00,   0.00, 1014.3,    0.6, -999.0
17-10-2023, 00:26:59,     60,    0.2,    7.2,   0.00,   0.00, 1014.3,    0.5, -999.0
17-10-2023, 00:27:09,     60,    0.0,    7.2,   0.00,   0.00, 1014.2,    0.8, -999.0
17-10-2023, 00:27:19,     60,    0.0,    7.1,   0.00,   0.00, 1014.3,    0.6, -999.0
17-10-2023, 00:27:29,     60,    0.0,    7.1,   0.00,   0.00, 1014.3,    0.9, -999.0
17-10-2023, 00:27:39,     61,    0.2,    7.2,   0.00,   0.00, 1014.4,    0.5, -999.0
17-10-2023, 00:27:49,     60,    0.6,    7.3,   0.00,   0.00, 1014.4,    0.5, -999.0
17-10-2023, 00:27:59,     60,    0.0,    7.0,   0.00,   0.00, 1014.3,    0.6, -999.0
17-10-2023, 00:28:09,     60,    0.0,    7.2,   0.00,   0.00, 1014.3,    0.1, -999.0
17-10-2023, 00:28:19,     60,    0.0,    7.2,   0.00,   0.00, 1014.3,    0.4, -999.0
17-10-2023, 00:28:29,     60,    0.0,    7.2,   0.00,   0.00, 1014.3,    1.4, -999.0
17-10-2023, 00:28:39,     60,    0.0,    7.2,   0.00,   0.00, 1014.3,    0.8, -999.0
17-10-2023, 00:28:49,     60,    0.0,    7.2,   0.00,   0.00, 1014.3,    0.3, -999.0
17-10-2023, 00:28:59,     60,    0.0,    7.1,   0.00,   0.00, 1014.3,    0.7, -999.0
17-10-2023, 00:29:09,     60,    0.0,    7.1,   0.00,   0.00, 1014.3,    0.6, -999.0
17-10-2023, 00:29:19,     60,    0.0,    7.1,   0.00,   0.00, 1014.3,    0.2, -999.0
17-10-2023, 00:29:29,     60,    0.0,    7.2,   0.00,   0.00, 1014.3,    0.6, -999.0
17-10-2023, 00:29:39,     60,    0.0,    7.1,   0.00,   0.00, 1014.3,    0.8, -999.0
17-10-2023, 00:29:48,     60,    0.0,    7.1,   0.00,   0.00, 1014.3,    0.6, -999.0
17-10-2023, 00:29:59,     60,    0.0,    7.0,   0.00,   0.00, 1014.3,    0.6, -999.0
17-10-2023, 00:30:09,     60,    0.3,    7.1,   0.00,   0.00, 1014.4,    0.5, -999.0
17-10-2023, 00:30:19,     60,    0.0,    7.1,   0.00,   0.00, 1014.3,    0.7, -999.0
17-10-2023, 00:30:28,     60,    0.0,    7.2,   0.00,   0.00, 1014.3,    0.5, -999.0
17-10-2023, 00:30:39,     60,    0.0,    7.1,   0.00,   0.00, 1014.3,    0.6, -999.0
17-10-2023, 00:30:49,     60,    0.0,    7.2,   0.00,   0.00, 1014.3,    0.7, -999.0
17-10-2023, 00:30:58,     60,    0.0,    7.2,   0.00,   0.00, 1014.3,    0.7, -999.0
17-10-2023, 00:31:08,     60,    0.0,    7.2,   0.00,   0.00, 1014.3,    0.7, -999.0
17-10-2023, 00:31:19,     60,    0.0,    7.2,   0.00,   0.00, 1014.3,    0.5, -999.0
17-10-2023, 00:31:29,     60,    0.0,    7.1,   0.00,   0.00, 1014.3,    0.6, -999.0
17-10-2023, 00:31:38,     60,    0.0,    7.1,   0.00,   0.00, 1014.3,    0.7, -999.0
17-10-2023, 00:31:48,     60,    0.0,    7.1,   0.00,   0.00, 1014.3,    0.7, -999.0
17-10-2023, 00:31:59,     60,    0.0,    7.1,   0.00,   0.00, 1014.3,    0.9, -999.0
17-10-2023, 00:32:08,     60,    0.0,    7.1,   0.00,   0.00, 1014.3,    0.5, -999.0
17-10-2023, 00:32:18,     60,    0.1,    7.1,   0.00,   0.00, 1014.3,    0.8, -999.0
17-10-2023, 00:32:28,     60,    0.5,    7.2,   0.00,   0.00, 1014.4,    0.4, -999.0
17-10-2023, 00:32:38,     60,    0.9,    7.2,   0.00,   0.00, 1014.4,    0.7, -999.0
17-10-2023, 00:32:48,     60,    0.5,    7.2,   0.00,   0.00, 1014.4,    0.8, -999.0
17-10-2023, 00:32:58,     60,    0.0,    7.1,   0.00,   0.00, 1014.3,    0.6, -999.0
17-10-2023, 00:33:08,     60,    0.0,    7.1,   0.00,   0.00, 1014.3,    0.4, -999.0
17-10-2023, 00:33:18,     60,    0.0,    7.2,   0.00,   0.00, 1014.3,    0.5, -999.0
17-10-2023, 00:33:28,     60,    0.2,    7.3,   0.00,   0.00, 1014.4,    0.5, -999.0
17-10-2023, 00:33:38,     60,    0.0,    7.2,   0.00,   0.00, 1014.3,    1.2, -999.0
17-10-2023, 00:33:48,     60,    0.0,    7.2,   0.00,   0.00, 1014.3,    0.8, -999.0
17-10-2023, 00:33:58,     60,    0.0,    7.2,   0.00,   0.00, 1014.3,    0.5, -999.0
17-10-2023, 00:34:08,     60,    0.0,    7.2,   0.00,   0.00, 1014.2,    0.4, -999.0
17-10-2023, 00:34:18,     60,    0.0,    7.2,   0.00,   0.00, 1014.3,    0.6, -999.0
17-10-2023, 00:34:28,     60,    0.0,    7.2,   0.00,   0.00, 1014.3,    0.3, -999.0
17-10-2023, 00:34:38,     60,    0.0,    7.1,   0.00,   0.00, 1014.3,    0.7, -999.0
17-10-2023, 00:34:48,     60,    0.0,    7.2,   0.00,   0.00, 1014.3,    0.7, -999.0
17-10-2023, 00:34:58,     60,    0.2,    7.2,   0.00,   0.00, 1014.3,    0.4, -999.0
17-10-2023, 00:35:08,     60,    0.0,    7.2,   0.00,   0.00, 1014.3,    0.5, -999.0
17-10-2023, 00:35:18,     60,    0.2,    7.2,   0.00,   0.00, 1014.3,    0.8, -999.0
17-10-2023, 00:35:28,     60,    0.6,    7.3,   0.00,   0.00, 1014.4,    0.6, -999.0
17-10-2023, 00:35:38,     60,    0.0,    7.2,   0.00,   0.00, 1014.3,    0.6, -999.0
17-10-2023, 00:35:48,     60,    0.1,    7.2,   0.00,   0.00, 1014.3,    0.3, -999.0
17-10-2023, 00:35:58,     60,    0.1,    7.2,   0.00,   0.00, 1014.3,    0.8, -999.0
17-10-2023, 00:36:08,     60,    0.0,    7.2,   0.00,   0.00, 1014.2,    0.8, -999.0
17-10-2023, 00:36:18,     61,    0.5,    7.2,   0.00,   0.00, 1014.3,    0.3, -999.0
17-10-2023, 00:36:28,     60,    0.1,    7.2,   0.00,   0.00, 1014.3,    0.5, -999.0
17-10-2023, 00:36:38,     59,    0.0,    7.2,   0.00,   0.00, 1014.3,    0.5, -999.0
17-10-2023, 00:36:48,     60,    0.0,    7.2,   0.00,   0.00, 1014.2,    0.7, -999.0
17-10-2023, 00:36:58,     60,    0.0,    7.2,   0.00,   0.00, 1014.2,    0.7, -999.0
17-10-2023, 00:37:08,     60,    0.0,    7.1,   0.00,   0.00, 1014.2,    0.6, -999.0
17-10-2023, 00:37:18,     60,    0.0,    7.2,   0.00,   0.00, 1014.3,    0.5, -999.0
17-10-2023, 00:37:28,     60,    0.0,    7.2,   0.00,   0.00, 1014.2,    0.7, -999.0
17-10-2023, 00:37:37,     60,    0.0,    7.1,   0.00,   0.00, 1014.2,    0.7, -999.0
17-10-2023, 00:37:48,     60,    0.0,    7.1,   0.00,   0.00, 1014.2,    0.5, -999.0
17-10-2023, 00:37:58,     60,    0.0,    7.1,   0.00,   0.00, 1014.2,    0.7, -999.0
17-10-2023, 00:38:07,     60,    0.1,    7.1,   0.00,   0.00, 1014.2,    0.7, -999.0
17-10-2023, 00:38:17,     61,    0.6,    7.2,   0.00,   0.00, 1014.3,    0.7, -999.0
17-10-2023, 00:38:28,     60,    0.1,    7.1,   0.00,   0.00, 1014.2,    0.7, -999.0
17-10-2023, 00:38:38,     60,    0.0,    7.0,   0.00,   0.00, 1014.2,    0.5, -999.0
17-10-2023, 00:38:47,     60,    0.0,    7.0,   0.00,   0.00, 1014.2,    0.7, -999.0
17-10-2023, 00:38:57,     60,    0.3,    7.1,   0.00,   0.00, 1014.2,    0.5, -999.0
17-10-2023, 00:39:08,     60,    0.3,    7.0,   0.00,   0.00, 1014.3,    0.7, -999.0
17-10-2023, 00:39:17,     60,    0.2,    7.0,   0.00,   0.00, 1014.2,    0.6, -999.0
17-10-2023, 00:39:27,     60,    0.0,    7.0,   0.00,   0.00, 1014.2,    0.5, -999.0
17-10-2023, 00:39:37,     60,    0.0,    7.0,   0.00,   0.00, 1014.2,    0.5, -999.0
17-10-2023, 00:39:47,     60,    0.0,    6.9,   0.00,   0.00, 1014.2,    0.6, -999.0
17-10-2023, 00:39:57,     60,    0.0,    7.0,   0.00,   0.00, 1014.2,    0.5, -999.0
17-10-2023, 00:40:07,     60,    0.0,    7.1,   0.00,   0.00, 1014.2,    0.8, -999.0
17-10-2023, 00:40:17,     60,    0.3,    7.2,   0.00,   0.00, 1014.3,    0.6, -999.0
17-10-2023, 00:40:27,     60,    0.0,    7.1,   0.00,   0.00, 1014.1,    0.7, -999.0
17-10-2023, 00:40:37,     60,    0.0,    7.1,   0.00,   0.00, 1014.1,    0.5, -999.0
17-10-2023, 00:40:47,     61,    0.1,    7.1,   0.00,   0.00, 1014.2,    0.5, -999.0
17-10-2023, 00:40:57,     60,    0.6,    7.1,   0.00,   0.00, 1014.3,    0.6, -999.0
17-10-2023, 00:41:07,     60,    0.0,    7.0,   0.00,   0.00, 1014.1,    0.6, -999.0
17-10-2023, 00:41:17,     59,    0.0,    7.0,   0.00,   0.00, 1014.2,    0.5, -999.0
17-10-2023, 00:41:27,     60,    0.0,    7.0,   0.00,   0.00, 1014.1,    0.5, -999.0
17-10-2023, 00:41:37,     60,    0.0,    7.0,   0.00,   0.00, 1014.2,    0.7, -999.0
17-10-2023, 00:41:47,     60,    0.0,    7.0,   0.00,   0.00, 1014.2,    0.5, -999.0
17-10-2023, 00:41:57,     60,    0.0,    7.0,   0.00,   0.00, 1014.1,    0.6, -999.0
17-10-2023, 00:42:07,     60,    0.0,    7.0,   0.00,   0.00, 1014.1,    0.4, -999.0
17-10-2023, 00:42:17,     59,    0.0,    7.0,   0.00,   0.00, 1014.1,    0.4, -999.0
17-10-2023, 00:42:27,     60,    0.0,    7.0,   0.00,   0.00, 1014.1,    0.6, -999.0
17-10-2023, 00:42:37,     60,    0.0,    7.0,   0.00,   0.00, 1014.1,    0.5, -999.0
17-10-2023, 00:42:47,     60,    0.0,    7.0,   0.00,   0.00, 1014.1,    0.5, -999.0
17-10-2023, 00:42:57,     58,    0.0,    7.0,   0.00,   0.00, 1014.1,    0.6, -999.0
17-10-2023, 00:43:07,     60,    0.0,    7.0,   0.00,   0.00, 1014.1,    0.6, -999.0
17-10-2023, 00:43:17,     60,    0.6,    7.2,   0.00,   0.00, 1014.2,    0.6, -999.0
17-10-2023, 00:43:27,     60,    1.3,    7.2,   0.00,   0.00, 1014.3,    0.7, -999.0
17-10-2023, 00:43:37,     60,    1.2,    7.2,   0.00,   0.00, 1014.3,    0.6, -999.0
17-10-2023, 00:43:47,     59,    0.4,    7.1,   0.00,   0.00, 1014.2,    0.6, -999.0
17-10-2023, 00:43:57,     60,    0.3,    7.1,   0.00,   0.00, 1014.2,    0.6, -999.0
17-10-2023, 00:44:07,     60,    0.7,    7.0,   0.00,   0.00, 1014.2,    0.6, -999.0
17-10-2023, 00:44:16,     60,    0.1,    7.0,   0.00,   0.00, 1014.2,    0.7, -999.0
17-10-2023, 00:44:27,     60,    0.2,    7.0,   0.00,   0.00, 1014.2,    0.7, -999.0
17-10-2023, 00:44:37,     60,    0.7,    7.0,   0.00,   0.00, 1014.2,    0.4, -999.0
17-10-2023, 00:44:47,     60,    0.0,    6.9,   0.00,   0.00, 1014.1,    0.6, -999.0
17-10-2023, 00:44:56,     60,    0.0,    6.9,   0.00,   0.00, 1014.1,    0.7, -999.0
17-10-2023, 00:45:07,     60,    0.0,    6.9,   0.00,   0.00, 1014.1,    0.5, -999.0
17-10-2023, 00:45:17,     60,    0.3,    7.0,   0.00,   0.00, 1014.2,    0.6, -999.0
17-10-2023, 00:45:26,     59,    0.3,    7.1,   0.00,   0.00, 1014.2,    0.3, -999.0
17-10-2023, 00:45:36,     60,    0.0,    7.0,   0.00,   0.00, 1014.1,    0.7, -999.0
17-10-2023, 00:45:47,     60,    0.0,    6.9,   0.00,   0.00, 1014.1,    0.8, -999.0
17-10-2023, 00:45:56,     60,    0.9,    7.0,   0.00,   0.00, 1014.3,    1.0, -999.0
17-10-2023, 00:46:06,     60,    0.1,    7.0,   0.00,   0.00, 1014.2,    0.6, -999.0
17-10-2023, 00:46:16,     60,    0.0,    7.0,   0.00,   0.00, 1014.1,    0.6, -999.0
17-10-2023, 00:46:27,     60,    0.0,    7.0,   0.00,   0.00, 1014.1,    0.4, -999.0
17-10-2023, 00:46:36,     60,    0.0,    7.1,   0.00,   0.00, 1014.1,    0.6, -999.0
17-10-2023, 00:46:46,     60,    0.9,    7.3,   0.00,   0.00, 1014.3,    1.1, -999.0